,,Stat5,,Stat1,,Stat2,,Stat3,,Stat4,,Wind1,,Wind1,
time,status,PA1M_AVG,status,PR1M_SUM,status,RH1M_AVG,status,SR1M_AVG,status,TA1M_AVG,status,W1dAve1m,status,W1sAve1m,
2001-08-04, 00:00:00,VALID,919.161,VALID,0,VALID,99.203,VALID,0,VALID,18.9213,VALID,33,VALID,0.379645,
2001-08-04, 00:01:00,VALID,919.17,VALID,0,VALID,99.1979,VALID,-0.0169808,VALID,18.9119,VALID,29,VALID,0.476774,
2001-08-04, 00:02:00,VALID,919.181,VALID,0,VALID,99.1966,VALID,-0.0169808,VALID,18.9054,VALID,24,VALID,0.40602,
2001-08-04, 00:03:00,VALID,919.188,VALID,0,VALID,99.2017,VALID,-0.0169808,VALID,18.8922,VALID,18,VALID,0.297476,
2001-08-04, 00:04:00,VALID,919.173,VALID,0,VALID,99.1915,VALID,-0.0509425,VALID,18.889,VALID,341,VALID,0.408637,
2001-08-04, 00:05:00,VALID,919.195,VALID,0,VALID,99.2208,VALID,-0.0169808,VALID,18.9315,VALID,330,VALID,0.000223214,
2001-08-04, 00:06:00,VALID,919.181,VALID,0,VALID,99.2157,VALID,-0.0169808,VALID,18.9467,VALID,339,VALID,0.221137,
2001-08-04, 00:07:00,VALID,919.19,VALID,0,VALID,99.2322,VALID,0,VALID,18.9529,VALID,348,VALID,0,
2001-08-04, 00:08:00,VALID,919.181,VALID,0,VALID,99.222,VALID,-0.0509425,VALID,18.9631,VALID,8,VALID,0.366071,
2001-08-04, 00:09:00,VALID,919.166,VALID,0,VALID,99.2271,VALID,-0.0169808,VALID,18.9601,VALID,32,VALID,0.826606,
2001-08-04, 00:10:00,VALID,919.148,VALID,0,VALID,99.2093,VALID,-0.0169808,VALID,18.9407,VALID,38,VALID,0.90625,
2001-08-04, 00:11:00,VALID,919.126,VALID,0,VALID,99.203,VALID,-0.0339617,VALID,18.9116,VALID,31,VALID,0.9483,
2001-08-04, 00:12:00,VALID,919.102,VALID,0,VALID,99.1979,VALID,-0.0339617,VALID,18.8922,VALID,8,VALID,0.607856,
2001-08-04, 00:13:00,VALID,919.102,VALID,0,VALID,99.2017,VALID,-0.0339617,VALID,18.8855,VALID,359,VALID,0.483705,
2001-08-04, 00:14:00,VALID,919.105,VALID,0,VALID,99.203,VALID,0,VALID,18.8828,VALID,359,VALID,0.174403,
2001-08-04, 00:15:00,VALID,919.102,VALID,0,VALID,99.2119,VALID,-0.0169808,VALID,18.8788,VALID,359,VALID,0.0160362,
2001-08-04, 00:16:00,VALID,919.1,VALID,0,VALID,99.222,VALID,-0.0169808,VALID,18.9022,VALID,359,VALID,0,
2001-08-04, 00:17:00,VALID,919.114,VALID,0,VALID,99.2297,VALID,-0.0169808,VALID,18.889,VALID,359,VALID,0,
2001-08-04, 00:18:00,VALID,919.113,VALID,0,VALID,99.2322,VALID,-0.0169808,VALID,18.8987,VALID,3,VALID,0,
2001-08-04, 00:19:00,VALID,919.088,VALID,0,VALID,99.2411,VALID,0,VALID,18.9148,VALID,44,VALID,0,
2001-08-04, 00:20:00,VALID,919.091,VALID,0,VALID,99.25,VALID,0,VALID,18.9116,VALID,48,VALID,0,
2001-08-04, 00:21:00,VALID,919.088,VALID,0,VALID,99.2513,VALID,-0.0169808,VALID,18.9375,VALID,69,VALID,0,
2001-08-04, 00:22:00,VALID,919.089,VALID,0,VALID,99.2449,VALID,-0.0339617,VALID,18.9208,VALID,119,VALID,0,
2001-08-04, 00:23:00,VALID,919.081,VALID,0,VALID,99.2284,VALID,0,VALID,18.9044,VALID,106,VALID,0.23989,
2001-08-04, 00:24:00,VALID,919.081,VALID,0,VALID,99.2119,VALID,-0.0339617,VALID,18.8888,VALID,87,VALID,0.641681,
2001-08-04, 00:25:00,VALID,919.06,VALID,0,VALID,99.1839,VALID,0.0169808,VALID,18.8495,VALID,92,VALID,0.70777,
2001-08-04, 00:26:00,VALID,919.044,VALID,0,VALID,99.1941,VALID,-0.0169808,VALID,18.8175,VALID,122,VALID,0.273193,
2001-08-04, 00:27:00,VALID,919.05,VALID,0,VALID,99.2157,VALID,-0.0169808,VALID,18.8376,VALID,126,VALID,0.0134549,
2001-08-04, 00:28:00,VALID,919.047,VALID,0,VALID,99.2131,VALID,-0.0339617,VALID,18.8309,VALID,110,VALID,0.251302,
2001-08-04, 00:29:00,VALID,919.025,VALID,0,VALID,99.208,VALID,0,VALID,18.8145,VALID,85,VALID,0.531487,
2001-08-04, 00:30:00,VALID,918.999,VALID,0,VALID,99.2309,VALID,-0.0339617,VALID,18.8369,VALID,52,VALID,0.609992,
2001-08-04, 00:31:00,VALID,918.998,VALID,0,VALID,99.2411,VALID,-0.0339617,VALID,18.85,VALID,31,VALID,0.469643,
2001-08-04, 00:32:00,VALID,918.991,VALID,0,VALID,99.2411,VALID,0,VALID,18.8731,VALID,65,VALID,0.353171,
2001-08-04, 00:33:00,VALID,918.993,VALID,0,VALID,99.2347,VALID,0,VALID,18.8699,VALID,33,VALID,0.638514,
2001-08-04, 00:34:00,VALID,918.999,VALID,0,VALID,99.2297,VALID,-0.0169808,VALID,18.8567,VALID,31,VALID,1.2046,
2001-08-04, 00:35:00,VALID,919.009,VALID,0,VALID,99.2131,VALID,0,VALID,18.8403,VALID,17,VALID,0.825928,
2001-08-04, 00:36:00,VALID,919.039,VALID,0,VALID,99.1915,VALID,0,VALID,18.7951,VALID,21,VALID,0.736979,
2001-08-04, 00:37:00,VALID,919.056,VALID,0,VALID,99.1775,VALID,0.0169808,VALID,18.7755,VALID,5,VALID,0.626736,
2001-08-04, 00:38:00,VALID,919.054,VALID,0,VALID,99.1178,VALID,0,VALID,18.7338,VALID,359,VALID,0.614347,
2001-08-04, 00:39:00,VALID,919.06,VALID,0,VALID,99.1012,VALID,0,VALID,18.7176,VALID,20,VALID,0.46176,
2001-08-04, 00:40:00,VALID,919.048,VALID,0,VALID,99.0961,VALID,0,VALID,18.7464,VALID,18,VALID,0.557366,
2001-08-04, 00:41:00,VALID,919.051,VALID,0,VALID,99.0631,VALID,-0.0169808,VALID,18.737,VALID,26,VALID,0.444164,
2001-08-04, 00:42:00,VALID,919.058,VALID,0,VALID,99.0427,VALID,0,VALID,18.7308,VALID,342,VALID,0.277872,
2001-08-04, 00:43:00,VALID,919.064,VALID,0,VALID,99.0198,VALID,0,VALID,18.7176,VALID,281,VALID,0.255279,
2001-08-04, 00:44:00,VALID,919.077,VALID,0,VALID,99.0275,VALID,-0.0169808,VALID,18.7176,VALID,258,VALID,0.242188,
2001-08-04, 00:45:00,VALID,919.072,VALID,0,VALID,99.0275,VALID,0,VALID,18.7377,VALID,258,VALID,0.00434028,
2001-08-04, 00:46:00,VALID,919.056,VALID,0,VALID,99.03,VALID,0,VALID,18.7405,VALID,338,VALID,0.313151,
2001-08-04, 00:47:00,VALID,919.045,VALID,0,VALID,99.0097,VALID,-0.0169808,VALID,18.7308,VALID,25,VALID,0.768466,
2001-08-04, 00:48:00,VALID,919.033,VALID,0,VALID,99.0122,VALID,0.0169808,VALID,18.7467,VALID,30,VALID,0.802015,
2001-08-04, 00:49:00,VALID,919.013,VALID,0,VALID,98.9906,VALID,-0.0339617,VALID,18.7534,VALID,30,VALID,0.509152,
2001-08-04, 00:50:00,VALID,919.002,VALID,0,VALID,98.9766,VALID,-0.0679233,VALID,18.7605,VALID,29,VALID,0.136259,
2001-08-04, 00:51:00,VALID,918.975,VALID,0,VALID,98.9715,VALID,-0.0339617,VALID,18.7536,VALID,30,VALID,0.0375845,
2001-08-04, 00:52:00,VALID,918.963,VALID,0,VALID,98.9715,VALID,-0.0509425,VALID,18.7534,VALID,30,VALID,0.0869932,
2001-08-04, 00:53:00,VALID,918.956,VALID,0.2,VALID,98.9626,VALID,-0.0339617,VALID,18.764,VALID,30,VALID,0,
2001-08-04, 00:54:00,VALID,918.933,VALID,0,VALID,98.9474,VALID,-0.0169808,VALID,18.734,VALID,30,VALID,0.0117188,
2001-08-04, 00:55:00,VALID,918.914,VALID,0,VALID,98.9346,VALID,-0.0169808,VALID,18.7377,VALID,31,VALID,0.195964,
2001-08-04, 00:56:00,VALID,918.903,VALID,0,VALID,98.9359,VALID,-0.0169808,VALID,18.7312,VALID,39,VALID,0.212358,
2001-08-04, 00:57:00,VALID,918.893,VALID,0,VALID,98.9321,VALID,0,VALID,18.7312,VALID,39,VALID,0.247327,
2001-08-04, 00:58:00,VALID,918.885,VALID,0,VALID,98.894,VALID,0,VALID,18.6955,VALID,39,VALID,0.435491,
2001-08-04, 00:59:00,VALID,918.88,VALID,0,VALID,98.8787,VALID,-0.0169808,VALID,18.689,VALID,39,VALID,0.295726,
2001-08-04, 01:00:00,VALID,918.892,VALID,0,VALID,98.8838,VALID,-0.0169808,VALID,18.6689,VALID,35,VALID,0,
2001-08-04, 01:01:00,VALID,918.902,VALID,0,VALID,98.8584,VALID,0.0169808,VALID,18.6565,VALID,27,VALID,0,
2001-08-04, 01:02:00,VALID,918.911,VALID,0,VALID,98.8355,VALID,-0.0169808,VALID,18.6475,VALID,27,VALID,0,
2001-08-04, 01:03:00,VALID,918.914,VALID,0,VALID,98.8329,VALID,0,VALID,18.6244,VALID,27,VALID,0,
2001-08-04, 01:04:00,VALID,918.914,VALID,0,VALID,98.8622,VALID,-0.0169808,VALID,18.6309,VALID,27,VALID,0,
2001-08-04, 01:05:00,VALID,918.915,VALID,0,VALID,98.8367,VALID,-0.0169808,VALID,18.6277,VALID,29,VALID,0,
2001-08-04, 01:06:00,VALID,918.909,VALID,0,VALID,98.7617,VALID,-0.0169808,VALID,18.6018,VALID,38,VALID,0.0205592,
2001-08-04, 01:07:00,VALID,918.888,VALID,0,VALID,98.7401,VALID,0,VALID,18.576,VALID,43,VALID,0.449777,
2001-08-04, 01:08:00,VALID,918.879,VALID,0,VALID,98.7032,VALID,0,VALID,18.5601,VALID,46,VALID,0.463006,
2001-08-04, 01:09:00,VALID,918.857,VALID,0,VALID,98.6676,VALID,0,VALID,18.5243,VALID,47,VALID,0.431799,
2001-08-04, 01:10:00,VALID,918.832,VALID,0,VALID,98.6473,VALID,-0.0169808,VALID,18.4888,VALID,46,VALID,0.395059,
2001-08-04, 01:11:00,VALID,918.807,VALID,0,VALID,98.6333,VALID,-0.0339617,VALID,18.4531,VALID,46,VALID,0.335205,
2001-08-04, 01:12:00,VALID,918.801,VALID,0,VALID,98.6473,VALID,-0.0339617,VALID,18.4272,VALID,47,VALID,0.0553385,
2001-08-04, 01:13:00,VALID,918.785,VALID,0,VALID,98.6854,VALID,-0.0169808,VALID,18.4085,VALID,66,VALID,0,
2001-08-04, 01:14:00,VALID,918.761,VALID,0,VALID,98.7312,VALID,-0.0509425,VALID,18.3963,VALID,132,VALID,0,
2001-08-04, 01:15:00,VALID,918.755,VALID,0,VALID,98.7846,VALID,-0.0849042,VALID,18.3929,VALID,124,VALID,0,
2001-08-04, 01:16:00,VALID,918.753,VALID,0,VALID,98.8266,VALID,-0.0679233,VALID,18.4127,VALID,124,VALID,0,
2001-08-04, 01:17:00,VALID,918.766,VALID,0,VALID,98.8329,VALID,-0.0509425,VALID,18.3991,VALID,125,VALID,0,
2001-08-04, 01:18:00,VALID,918.762,VALID,0,VALID,98.8342,VALID,-0.101885,VALID,18.3929,VALID,125,VALID,0,
2001-08-04, 01:19:00,VALID,918.755,VALID,0,VALID,98.8469,VALID,-0.0509425,VALID,18.3896,VALID,125,VALID,0,
2001-08-04, 01:20:00,VALID,918.726,VALID,0,VALID,98.8507,VALID,-0.0849042,VALID,18.3899,VALID,121,VALID,0,
2001-08-04, 01:21:00,VALID,918.717,VALID,0,VALID,98.8545,VALID,-0.0679233,VALID,18.3839,VALID,106,VALID,0,
2001-08-04, 01:22:00,VALID,918.705,VALID,0,VALID,98.8622,VALID,-0.0679233,VALID,18.3705,VALID,106,VALID,0,
2001-08-04, 01:23:00,VALID,918.688,VALID,0,VALID,98.8596,VALID,-0.0339617,VALID,18.3447,VALID,106,VALID,0,
2001-08-04, 01:24:00,VALID,918.679,VALID,0,VALID,98.8406,VALID,-0.0849042,VALID,18.3417,VALID,106,VALID,0,
2001-08-04, 01:25:00,VALID,918.66,VALID,0,VALID,98.8622,VALID,-0.0679233,VALID,18.3154,VALID,106,VALID,0,
2001-08-04, 01:26:00,VALID,918.639,VALID,0,VALID,98.8558,VALID,-0.0849042,VALID,18.3197,VALID,106,VALID,0,
2001-08-04, 01:27:00,VALID,918.609,VALID,0,VALID,98.796,VALID,-0.0849042,VALID,18.2838,VALID,83,VALID,0,
2001-08-04, 01:28:00,VALID,918.573,VALID,0,VALID,98.7681,VALID,-0.0849042,VALID,18.2189,VALID,56,VALID,0.270693,
2001-08-04, 01:29:00,VALID,918.56,VALID,0,VALID,98.8393,VALID,0,VALID,18.2141,VALID,40,VALID,0.60083,
2001-08-04, 01:30:00,VALID,918.543,VALID,0,VALID,98.8634,VALID,0,VALID,18.2019,VALID,53,VALID,0.832899,
2001-08-04, 01:31:00,VALID,918.529,VALID,0,VALID,98.9537,VALID,-0.0169808,VALID,18.2374,VALID,48,VALID,0.873481,
2001-08-04, 01:32:00,VALID,918.517,VALID,0,VALID,98.9334,VALID,0.0169808,VALID,18.221,VALID,43,VALID,0.731297,
2001-08-04, 01:33:00,VALID,918.507,VALID,0,VALID,98.9919,VALID,0.0509425,VALID,18.2533,VALID,53,VALID,0.731086,
2001-08-04, 01:34:00,VALID,918.511,VALID,0,VALID,99.0453,VALID,0.0169808,VALID,18.2921,VALID,54,VALID,0.774107,
2001-08-04, 01:35:00,VALID,918.493,VALID,0,VALID,99.0593,VALID,0.0339617,VALID,18.3144,VALID,54,VALID,0.648897,
2001-08-04, 01:36:00,VALID,918.491,VALID,0,VALID,99.0682,VALID,0.0509425,VALID,18.3398,VALID,54,VALID,0.440034,
2001-08-04, 01:37:00,VALID,918.466,VALID,0,VALID,99.0491,VALID,0.0169808,VALID,18.3306,VALID,54,VALID,0.313345,
2001-08-04, 01:38:00,VALID,918.463,VALID,0,VALID,99.0733,VALID,0.0509425,VALID,18.35,VALID,54,VALID,0.14624,
2001-08-04, 01:39:00,VALID,918.459,VALID,0,VALID,99.1432,VALID,0,VALID,18.3885,VALID,54,VALID,0,
2001-08-04, 01:40:00,VALID,918.466,VALID,0,VALID,99.1394,VALID,0.0169808,VALID,18.4242,VALID,54,VALID,0,
2001-08-04, 01:41:00,VALID,918.473,VALID,0,VALID,99.1114,VALID,0.0169808,VALID,18.4404,VALID,54,VALID,0,
2001-08-04, 01:42:00,VALID,918.47,VALID,0,VALID,99.0707,VALID,0.0339617,VALID,18.4275,VALID,54,VALID,0,
2001-08-04, 01:43:00,VALID,918.466,VALID,0,VALID,99.0262,VALID,0.0169808,VALID,18.4046,VALID,54,VALID,0,
2001-08-04, 01:44:00,VALID,918.472,VALID,0,VALID,99.0059,VALID,0.0169808,VALID,18.3822,VALID,54,VALID,0,
2001-08-04, 01:45:00,VALID,918.465,VALID,0,VALID,98.9906,VALID,0.0339617,VALID,18.3626,VALID,52,VALID,0,
2001-08-04, 01:46:00,VALID,918.439,VALID,0,VALID,98.9092,VALID,0.0169808,VALID,18.2953,VALID,39,VALID,0,
2001-08-04, 01:47:00,VALID,918.44,VALID,0,VALID,98.8774,VALID,0.0169808,VALID,18.2337,VALID,34,VALID,0,
2001-08-04, 01:48:00,VALID,918.439,VALID,0,VALID,98.9753,VALID,0.0169808,VALID,18.2496,VALID,32,VALID,0,
2001-08-04, 01:49:00,VALID,918.424,VALID,0,VALID,99.0046,VALID,0.0169808,VALID,18.2595,VALID,31,VALID,0,
2001-08-04, 01:50:00,VALID,918.399,VALID,0,VALID,98.9753,VALID,0,VALID,18.2439,VALID,32,VALID,0,
2001-08-04, 01:51:00,VALID,918.391,VALID,0,VALID,98.9512,VALID,0.0339617,VALID,18.2086,VALID,36,VALID,0,
2001-08-04, 01:52:00,VALID,918.36,VALID,0,VALID,98.9346,VALID,0,VALID,18.1696,VALID,42,VALID,0,
2001-08-04, 01:53:00,VALID,918.335,VALID,0,VALID,99.0516,VALID,0.0169808,VALID,18.1989,VALID,42,VALID,0,
2001-08-04, 01:54:00,VALID,918.318,VALID,0,VALID,99.1203,VALID,0.0339617,VALID,18.2692,VALID,42,VALID,0,
2001-08-04, 01:55:00,VALID,918.301,VALID,0,VALID,99.1292,VALID,0.0169808,VALID,18.2987,VALID,42,VALID,0,
2001-08-04, 01:56:00,VALID,918.292,VALID,0,VALID,99.1368,VALID,0.0339617,VALID,18.3274,VALID,42,VALID,0,
2001-08-04, 01:57:00,VALID,918.266,VALID,0,VALID,99.1152,VALID,0,VALID,18.3347,VALID,42,VALID,0,
2001-08-04, 01:58:00,VALID,918.263,VALID,0,VALID,99.0961,VALID,0,VALID,18.3218,VALID,42,VALID,0,
2001-08-04, 01:59:00,VALID,918.254,VALID,0,VALID,99.0923,VALID,0,VALID,18.3181,VALID,42,VALID,0,
2001-08-04, 02:00:00,VALID,918.242,VALID,0,VALID,99.0529,VALID,0,VALID,18.3149,VALID,42,VALID,0,
2001-08-04, 02:01:00,VALID,918.231,VALID,0,VALID,99.0338,VALID,0,VALID,18.2958,VALID,42,VALID,0,
2001-08-04, 02:02:00,VALID,918.218,VALID,0,VALID,99.0237,VALID,0,VALID,18.2796,VALID,42,VALID,0,
2001-08-04, 02:03:00,VALID,918.194,VALID,0,VALID,99.0758,VALID,-0.0339617,VALID,18.3414,VALID,42,VALID,0,
2001-08-04, 02:04:00,VALID,918.172,VALID,0,VALID,99.1152,VALID,0,VALID,18.3767,VALID,42,VALID,0,
2001-08-04, 02:05:00,VALID,918.167,VALID,0,VALID,99.0618,VALID,0.0169808,VALID,18.338,VALID,42,VALID,0,
2001-08-04, 02:06:00,VALID,918.142,VALID,0,VALID,98.9982,VALID,0.0169808,VALID,18.2992,VALID,42,VALID,0,
2001-08-04, 02:07:00,VALID,918.133,VALID,0,VALID,98.9715,VALID,0,VALID,18.2545,VALID,42,VALID,0,
2001-08-04, 02:08:00,VALID,918.114,VALID,0,VALID,99.0008,VALID,0,VALID,18.2058,VALID,56,VALID,0,
2001-08-04, 02:09:00,VALID,918.109,VALID,0,VALID,98.9804,VALID,0,VALID,18.17,VALID,81,VALID,0,
2001-08-04, 02:10:00,VALID,918.11,VALID,0,VALID,98.9296,VALID,0.0169808,VALID,18.1182,VALID,109,VALID,0,
2001-08-04, 02:11:00,VALID,918.099,VALID,0,VALID,98.866,VALID,0,VALID,18.0275,VALID,149,VALID,0,
2001-08-04, 02:12:00,VALID,918.095,VALID,0,VALID,98.866,VALID,0,VALID,17.9699,VALID,154,VALID,0,
2001-08-04, 02:13:00,VALID,918.104,VALID,0,VALID,98.9003,VALID,-0.0339617,VALID,17.9281,VALID,155,VALID,0,
2001-08-04, 02:14:00,VALID,918.101,VALID,0,VALID,98.9385,VALID,0,VALID,17.9191,VALID,155,VALID,0,
2001-08-04, 02:15:00,VALID,918.104,VALID,0,VALID,98.9703,VALID,-0.0339617,VALID,17.8926,VALID,155,VALID,0,
2001-08-04, 02:16:00,VALID,918.118,VALID,0,VALID,99.0453,VALID,-0.0169808,VALID,17.896,VALID,155,VALID,0,
2001-08-04, 02:17:00,VALID,918.11,VALID,0,VALID,98.9588,VALID,-0.0169808,VALID,17.8605,VALID,78,VALID,0,
2001-08-04, 02:18:00,VALID,918.105,VALID,0,VALID,98.9614,VALID,-0.0169808,VALID,17.8128,VALID,68,VALID,0.10773,
2001-08-04, 02:19:00,VALID,918.1,VALID,0,VALID,99.0796,VALID,-0.0169808,VALID,17.828,VALID,72,VALID,0.963393,
2001-08-04, 02:20:00,VALID,918.084,VALID,0,VALID,99.1406,VALID,0,VALID,17.8547,VALID,76,VALID,0.834559,
2001-08-04, 02:21:00,VALID,918.061,VALID,0,VALID,99.1305,VALID,0,VALID,17.8538,VALID,77,VALID,0.368421,
2001-08-04, 02:22:00,VALID,918.048,VALID,0,VALID,99.1279,VALID,-0.0169808,VALID,17.8312,VALID,76,VALID,0.459882,
2001-08-04, 02:23:00,VALID,918.012,VALID,0,VALID,99.1267,VALID,0,VALID,17.8119,VALID,75,VALID,0.462402,
2001-08-04, 02:24:00,VALID,917.982,VALID,0,VALID,99.0644,VALID,-0.0509425,VALID,17.7374,VALID,75,VALID,0.450738,
2001-08-04, 02:25:00,VALID,917.96,VALID,0,VALID,99.1279,VALID,0,VALID,17.7249,VALID,92,VALID,0.68967,
2001-08-04, 02:26:00,VALID,917.935,VALID,0,VALID,99.1572,VALID,-0.0339617,VALID,17.7348,VALID,101,VALID,0.766098,
2001-08-04, 02:27:00,VALID,917.919,VALID,0,VALID,99.1737,VALID,-0.0509425,VALID,17.7185,VALID,116,VALID,0.832648,
2001-08-04, 02:28:00,VALID,917.896,VALID,0,VALID,99.2437,VALID,-0.0169808,VALID,17.7187,VALID,119,VALID,1.26853,
2001-08-04, 02:29:00,VALID,917.879,VALID,0,VALID,99.3327,VALID,0,VALID,17.7893,VALID,116,VALID,1.36512,
2001-08-04, 02:30:00,VALID,917.855,VALID,0,VALID,99.3466,VALID,0.0169808,VALID,17.831,VALID,115,VALID,1.29624,
2001-08-04, 02:31:00,VALID,917.854,VALID,0,VALID,99.3416,VALID,0,VALID,17.8375,VALID,114,VALID,1.15034,
2001-08-04, 02:32:00,VALID,917.845,VALID,0,VALID,99.3276,VALID,-0.0169808,VALID,17.8511,VALID,106,VALID,0.953857,
2001-08-04, 02:33:00,VALID,917.84,VALID,0,VALID,99.3657,VALID,0,VALID,17.8668,VALID,99,VALID,1.03928,
2001-08-04, 02:34:00,VALID,917.843,VALID,0,VALID,99.3746,VALID,-0.0169808,VALID,17.8965,VALID,112,VALID,1.05013,
2001-08-04, 02:35:00,VALID,917.833,VALID,0,VALID,99.3848,VALID,-0.0169808,VALID,17.906,VALID,120,VALID,0.951231,
2001-08-04, 02:36:00,VALID,917.815,VALID,0,VALID,99.3708,VALID,-0.0339617,VALID,17.9191,VALID,111,VALID,1.06641,
2001-08-04, 02:37:00,VALID,917.812,VALID,0,VALID,99.3683,VALID,0,VALID,17.906,VALID,110,VALID,1.0846,
2001-08-04, 02:38:00,VALID,917.786,VALID,0,VALID,99.3835,VALID,0,VALID,17.9122,VALID,116,VALID,1.23438,
2001-08-04, 02:39:00,VALID,917.76,VALID,0,VALID,99.3873,VALID,0,VALID,17.9223,VALID,124,VALID,1.09818,
2001-08-04, 02:40:00,VALID,917.742,VALID,0,VALID,99.3873,VALID,-0.0169808,VALID,17.9152,VALID,125,VALID,1.00401,
2001-08-04, 02:41:00,VALID,917.723,VALID,0,VALID,99.4039,VALID,-0.0169808,VALID,17.9322,VALID,119,VALID,0.918701,
2001-08-04, 02:42:00,VALID,917.72,VALID,0,VALID,99.4382,VALID,0,VALID,17.9442,VALID,122,VALID,0.604601,
2001-08-04, 02:43:00,VALID,917.715,VALID,0,VALID,99.4306,VALID,-0.0169808,VALID,17.9703,VALID,125,VALID,0.630642,
2001-08-04, 02:44:00,VALID,917.722,VALID,0,VALID,99.4344,VALID,-0.0339617,VALID,17.9865,VALID,127,VALID,0.673769,
2001-08-04, 02:45:00,VALID,917.72,VALID,0,VALID,99.4458,VALID,0,VALID,17.9925,VALID,117,VALID,0.764803,
2001-08-04, 02:46:00,VALID,917.713,VALID,0,VALID,99.4369,VALID,-0.0169808,VALID,18.0058,VALID,127,VALID,0.855357,
2001-08-04, 02:47:00,VALID,917.7,VALID,0,VALID,99.4395,VALID,0,VALID,18.0187,VALID,128,VALID,0.920037,
2001-08-04, 02:48:00,VALID,917.69,VALID,0,VALID,99.4522,VALID,0,VALID,18.0349,VALID,135,VALID,0.842483,
2001-08-04, 02:49:00,VALID,917.672,VALID,0,VALID,99.4611,VALID,0,VALID,18.0605,VALID,121,VALID,1.01647,
2001-08-04, 02:50:00,VALID,917.662,VALID,0,VALID,99.4675,VALID,-0.0339617,VALID,18.0896,VALID,121,VALID,0.908691,
2001-08-04, 02:51:00,VALID,917.653,VALID,0,VALID,99.4573,VALID,0,VALID,18.0891,VALID,135,VALID,0.735677,
2001-08-04, 02:52:00,VALID,917.629,VALID,0,VALID,99.4764,VALID,0,VALID,18.1027,VALID,116,VALID,0.941189,
2001-08-04, 02:53:00,VALID,917.623,VALID,0,VALID,99.4547,VALID,0,VALID,18.1184,VALID,101,VALID,0.848722,
2001-08-04, 02:54:00,VALID,917.6,VALID,0,VALID,99.4496,VALID,-0.0339617,VALID,18.1089,VALID,104,VALID,0.825452,
2001-08-04, 02:55:00,VALID,917.584,VALID,0,VALID,99.4458,VALID,0,VALID,18.1059,VALID,130,VALID,0.833705,
2001-08-04, 02:56:00,VALID,917.575,VALID,0,VALID,99.456,VALID,0.0169808,VALID,18.0988,VALID,116,VALID,0.914982,
2001-08-04, 02:57:00,VALID,917.575,VALID,0,VALID,99.4713,VALID,0.0169808,VALID,18.1186,VALID,124,VALID,0.570946,
2001-08-04, 02:58:00,VALID,917.563,VALID,0,VALID,99.4713,VALID,0,VALID,18.1313,VALID,141,VALID,0.650549,
2001-08-04, 02:59:00,VALID,917.544,VALID,0,VALID,99.47,VALID,-0.0169808,VALID,18.1414,VALID,143,VALID,0.869873,
2001-08-04, 03:00:00,VALID,917.523,VALID,0,VALID,99.4687,VALID,-0.0169808,VALID,18.1449,VALID,147,VALID,1.28299,
2001-08-04, 03:01:00,VALID,917.506,VALID,0,VALID,99.4649,VALID,-0.0339617,VALID,18.1484,VALID,147,VALID,1.22374,
2001-08-04, 03:02:00,VALID,917.508,VALID,0,VALID,99.4687,VALID,-0.0169808,VALID,18.1414,VALID,147,VALID,1.20478,
2001-08-04, 03:03:00,VALID,917.488,VALID,0,VALID,99.4687,VALID,0,VALID,18.1384,VALID,145,VALID,1.11143,
2001-08-04, 03:04:00,VALID,917.49,VALID,0,VALID,99.47,VALID,-0.0339617,VALID,18.1447,VALID,159,VALID,1.01629,
2001-08-04, 03:05:00,VALID,917.486,VALID,0,VALID,99.4687,VALID,0,VALID,18.1285,VALID,154,VALID,1.1489,
2001-08-04, 03:06:00,VALID,917.482,VALID,0,VALID,99.4713,VALID,-0.0169808,VALID,18.1186,VALID,155,VALID,1.03125,
2001-08-04, 03:07:00,VALID,917.469,VALID,0,VALID,99.4573,VALID,-0.0509425,VALID,18.1188,VALID,150,VALID,1.03695,
2001-08-04, 03:08:00,VALID,917.472,VALID,0,VALID,99.47,VALID,-0.0509425,VALID,18.1223,VALID,147,VALID,0.84082,
2001-08-04, 03:09:00,VALID,917.456,VALID,0,VALID,99.4662,VALID,-0.0169808,VALID,18.1156,VALID,146,VALID,1.10569,
2001-08-04, 03:10:00,VALID,917.436,VALID,0,VALID,99.4725,VALID,0,VALID,18.1156,VALID,152,VALID,1.12478,
2001-08-04, 03:11:00,VALID,917.439,VALID,0,VALID,99.4738,VALID,0,VALID,18.1225,VALID,147,VALID,0.845881,
2001-08-04, 03:12:00,VALID,917.427,VALID,0,VALID,99.4776,VALID,0,VALID,18.1096,VALID,146,VALID,1.30489,
2001-08-04, 03:13:00,VALID,917.422,VALID,0,VALID,99.4878,VALID,-0.0169808,VALID,18.1057,VALID,146,VALID,1.23638,
2001-08-04, 03:14:00,VALID,917.431,VALID,0,VALID,99.4764,VALID,-0.0339617,VALID,18.1223,VALID,143,VALID,1.39936,
2001-08-04, 03:15:00,VALID,917.416,VALID,0,VALID,99.4764,VALID,-0.0509425,VALID,18.1188,VALID,131,VALID,1.00338,
2001-08-04, 03:16:00,VALID,917.419,VALID,0,VALID,99.4827,VALID,-0.0509425,VALID,18.1255,VALID,132,VALID,0.740921,
2001-08-04, 03:17:00,VALID,917.407,VALID,0,VALID,99.5043,VALID,-0.0339617,VALID,18.1124,VALID,128,VALID,0.581543,
2001-08-04, 03:18:00,VALID,917.404,VALID,0,VALID,99.4853,VALID,-0.0169808,VALID,18.1223,VALID,116,VALID,0.732639,
2001-08-04, 03:19:00,VALID,917.41,VALID,0,VALID,99.5005,VALID,-0.0339617,VALID,18.1154,VALID,116,VALID,0.649089,
2001-08-04, 03:20:00,VALID,917.419,VALID,0,VALID,99.5031,VALID,-0.0339617,VALID,18.1255,VALID,116,VALID,0.589015,
2001-08-04, 03:21:00,VALID,917.428,VALID,0,VALID,99.4891,VALID,-0.0849042,VALID,18.1191,VALID,111,VALID,1.08635,
2001-08-04, 03:22:00,VALID,917.413,VALID,0,VALID,99.5018,VALID,-0.0169808,VALID,18.099,VALID,107,VALID,0.933259,
2001-08-04, 03:23:00,VALID,917.401,VALID,0,VALID,99.4789,VALID,0,VALID,18.0902,VALID,120,VALID,0.543658,
2001-08-04, 03:24:00,VALID,917.398,VALID,0,VALID,99.498,VALID,-0.0679233,VALID,18.0801,VALID,127,VALID,0.863176,
2001-08-04, 03:25:00,VALID,917.398,VALID,0,VALID,99.5043,VALID,-0.0339617,VALID,18.0992,VALID,116,VALID,0.457981,
2001-08-04, 03:26:00,VALID,917.396,VALID,0,VALID,99.5107,VALID,-0.0169808,VALID,18.1094,VALID,121,VALID,0.70752,
2001-08-04, 03:27:00,VALID,917.409,VALID,0,VALID,99.5196,VALID,-0.0339617,VALID,18.1191,VALID,138,VALID,0.233507,
2001-08-04, 03:28:00,VALID,917.404,VALID,0,VALID,99.5043,VALID,-0.0339617,VALID,18.1057,VALID,148,VALID,0.426866,
2001-08-04, 03:29:00,VALID,917.402,VALID,0,VALID,99.5132,VALID,-0.0339617,VALID,18.1089,VALID,156,VALID,0.8125,
2001-08-04, 03:30:00,VALID,917.398,VALID,0,VALID,99.5132,VALID,0,VALID,18.1223,VALID,151,VALID,0.804071,
2001-08-04, 03:31:00,VALID,917.393,VALID,0,VALID,99.5107,VALID,0,VALID,18.1248,VALID,149,VALID,1.03638,
2001-08-04, 03:32:00,VALID,917.378,VALID,0,VALID,99.5221,VALID,0,VALID,18.1315,VALID,162,VALID,0.910846,
2001-08-04, 03:33:00,VALID,917.38,VALID,0,VALID,99.5259,VALID,0,VALID,18.1414,VALID,152,VALID,0.771537,
2001-08-04, 03:34:00,VALID,917.371,VALID,0,VALID,99.5259,VALID,0,VALID,18.1348,VALID,161,VALID,0.785684,
2001-08-04, 03:35:00,VALID,917.36,VALID,0,VALID,99.5158,VALID,-0.0169808,VALID,18.1479,VALID,146,VALID,0.321777,
2001-08-04, 03:36:00,VALID,917.338,VALID,0,VALID,99.5158,VALID,-0.0169808,VALID,18.1348,VALID,142,VALID,0.541233,
2001-08-04, 03:37:00,VALID,917.314,VALID,0,VALID,99.5145,VALID,0,VALID,18.1281,VALID,127,VALID,0.550564,
2001-08-04, 03:38:00,VALID,917.294,VALID,0,VALID,99.5094,VALID,-0.0509425,VALID,18.1154,VALID,122,VALID,0.0769413,